Regional Weather Roundup
Issued by NWS

Home | Current Version | Previous Version | Text Only | Print | Product List | Glossary On
Versions: 1 2 3 4 5 6 7 8 9 10 11 12 13 14 15 16 17 18 19 20 21 22 23 24 25 26
000
ASUS42 KTBW 300517
RWRFL
FLORIDA REGIONAL WEATHER ROUNDUP
NATIONAL WEATHER SERVICE TAMPA BAY RUSKIN FL
100 AM EDT FRI SEP 30 2016

NOTE: "FAIR" INDICATES FEW OR NO CLOUDS BELOW 12,000 FEET WITH NO
SIGNIFICANT WEATHER AND/OR OBSTRUCTIONS TO VISIBILITY.

FLZ001>010-012>015-112-114-115-300600-
PANHANDLE FLORIDA

CITY           SKY/WX    TMP DP  RH WIND       PRES   REMARKS
PENSACOLA      CLEAR     67  50  54 N7        30.06F
PENSACOLA NAS  CLEAR     66  50  56 N7        30.06F
MILTON NAS     CLEAR     60  54  80 NW6       30.07F
CRESTVIEW      CLEAR     64  50  60 N6        30.08F
DUKE FIELD     CLEAR     61  50  69 NW6       30.06F
VALPARAISO     CLEAR     67  49  53 N9        30.05F
MARY ESTHER    CLEAR     62  50  66 N9        30.05F
TRI COUNTY     FAIR      62  55  77 CALM      30.06F
PANAMA CITY    FAIR      66  54  65 NW5       30.04F
TYNDALL AFB    CLEAR     72  53  50 NE10      30.04S
APALACHICOLA   CLEAR     72  64  76 N9        30.02S

STATION/POSITION SKY/WX   TEMP    WIND        PRES    WAVE   SWELL
                          AIR SEA DIR/SP/G            HT/PER HT/PER
                          (F)     (DEG/KT/KT) (MB)    (FT/S) (FT/S)
30.1N   87.6W              76 85   20/ 19/ 23 1018.0F   3/ 4
29.2N   88.2W              81 85  360/ 17/ 21 1017.5R
28.8N   86.0W              82 85              1017.3    2/ 5
PANAMA CITY BEAC           71 85  360/  8/ 11 1018.1R
TOWER C                    80      10/ 17/ 19 1016.5F
28.5N   84.5W              83 85  300/  8/  8 1016.6F   2/ 4   2/ 4

$$
FLZ011-016>038-118-127-128-134-139-239-300600-
NORTH FLORIDA

CITY           SKY/WX    TMP DP  RH WIND       PRES   REMARKS
MARIANNA       CLEAR     67  54  63 CALM      30.03F
TALLAHASSEE    PTCLDY    74  58  57 NW8       30.02S THUNDER
PERRY          CLEAR     73  65  78 CALM      30.02S
CROSS CITY     CLEAR     73  72  94 CALM      30.01S
LAKE CITY      FAIR      72  72 100 S3        30.01F
GAINESVILLE    CLEAR     75  73  93 S7        30.01F
WILLISTON      FOG       75  75 100 CALM      30.02F VSB 1/2
PALATKA        FAIR      73  73 100 SW3       30.01F
MAYPORT NAS    CLEAR     77  74  90 SW7       29.99F
JACKSONVILLE   PTCLDY    74  73  97 S5        29.98F
JAX NAS        CLEAR     80  74  81 S6        30.00F
FERNANDINA BEA FAIR      81  73  78 SW7       29.97F
ST AUGUSTINE   CLEAR     77  72  84 SW8       30.01F
PALM COAST     FAIR     N/A N/A N/A MISG      30.02S

STATION/POSITION SKY/WX   TEMP    WIND        PRES    WAVE   SWELL
                          AIR SEA DIR/SP/G            HT/PER HT/PER
                          (F)     (DEG/KT/KT) (MB)    (FT/S) (FT/S)
SHELL POINT                75     320/  7/ 10 1015.2
KEATON BEACH               82     290/ 12/ 15 1015.8F
CEDAR KEY                  83     260/  4/  5 1017.0R
FERNANDINA                 80 84  200/  2/  6 1015.7S
30.7N   81.3W                 82                N/A     3/12   2/12
MAYPORT                    79 83  230/ 10/ 12 1016.3S
31.4N   80.9W              82 82  200/ 16/ 19 1014.4F   3/ 5   2/11
ST AUGUSTINE               75 83  210/  6/  8 1016.7F

$$
FLZ040-043>046-052-053-057-058-063-144-300600-
INTERIOR CENTRAL FLORIDA

CITY           SKY/WX    TMP DP  RH WIND       PRES   REMARKS
OCALA          CLEAR     73  70  88 S3        30.02F
THE VILLAGES     N/A     75  75 100 E7        29.93F
LEESBURG       PTCLDY    76  72  87 S9        30.04F
SANFORD        CLEAR     76  70  82 SW7       30.03F
ORLANDO EXEC   CLEAR     75  71  87 SW7       30.04F
ORLANDO INTL   PTCLDY    74  71  91 S3        30.05F
KISSIMMEE      CLEAR     74  72  93 SE3       30.05F
WINTER HAVEN   CLEAR     74  71  91 SW3       30.06F
BARTOW         FAIR      72 N/A N/A CALM      30.05F
OKEECHOBEE     CLOUDY    73  72  94 SE6       30.07F

$$
FLZ041-047-054-059-064-141-147-300600-
EAST CENTRAL FLORIDA

CITY           SKY/WX    TMP DP  RH WIND       PRES   REMARKS
DAYTONA BEACH  PTCLDY    74  72  93 S6        30.03F
DELAND         PTCLDY    75  72  88 S7        30.03S
JFK SPACE CTR  CLEAR     78  72  82 SW7       30.02F
CAPE CANAVERAL CLEAR     77  74  90 SW8       30.03F
PATRICK AFB    CLOUDY    78  75  91 SW10      30.04F
MELBOURNE      PTCLDY    76  75  97 S6        30.05F
VERO BEACH     CLEAR     77  74  90 S7        30.06F
FT PIERCE      PTCLDY    76  74  93 CALM      30.06F
STUART         CLEAR     79  73  83 CALM      30.07F

STATION/POSITION SKY/WX   TEMP    WIND        PRES    WAVE   SWELL
                          AIR SEA DIR/SP/G            HT/PER HT/PER
                          (F)     (DEG/KT/KT) (MB)    (FT/S) (FT/S)
28.5N   80.2W              82 84  220/ 16/ 17 1017.5F
TRIDENT PIER               79 85  210/ 10/ 12 1018.1R
28.4N   80.5W                 85                N/A     2/11   2/11
27.5N   80.2W                 85                N/A     2/11   2/11

$$
FLZ050-056-061-142-242-148-248-149-249-151-251-155-255-
160-260-300600-
WEST CENTRAL FLORIDA

CITY           SKY/WX    TMP DP  RH WIND       PRES   REMARKS
CRYSTAL RIVER  FAIR      73  72  94 CALM      30.02F
INVERNESS      FAIR      72  72 100 CALM      30.03F
BROOKSVILLE    CLOUDY    73  73 100 SE3       30.04F
CLEARWATER AIR FAIR      73  73 100 CALM      30.03F
ST PETE CLEARW CLOUDY    76  75  97 S5        30.03F
TAMPA INTL     CLOUDY    79  76  90 S8        30.04F
TAMPA EXEC     PTCLDY    75  72  88 CALM      30.05F
PLANT CITY     PTCLDY    75  73  94 CALM      30.07F
MACDILL AFB    CLOUDY    78  78  99 S6        30.03F
PETER O KNIGHT CLOUDY    81  77  89 S7        30.04F
ST PETERSBURG  CLOUDY    79  75  87 S6        30.01F
SARASOTA       CLOUDY    77  73  87 SE3       30.02F
VENICE         MOCLDY    81  75  83 SE5       30.04F

STATION/POSITION SKY/WX   TEMP    WIND        PRES    WAVE   SWELL
                          AIR SEA DIR/SP/G            HT/PER HT/PER
                          (F)     (DEG/KT/KT) (MB)    (FT/S) (FT/S)
27.3N   84.2W                 86                N/A     3/ 5
CLEARWATER BEACH           79 86  130/  6/ 10 1017.7R
MIDDLE TAMPA BAY                  180/  9/ 11 1018.1R
VENICE                     82 87  200/ 10/ 11 1017.4F

$$
FLZ066-069-070-075>078-162-262-165-265-300600-
SOUTHWEST FLORIDA AND KEYS

CITY           SKY/WX    TMP DP  RH WIND       PRES   REMARKS
PUNTA GORDA    CLOUDY    75  74  96 NE5       30.06F
FT MYERS       CLOUDY    78  74  87 E5        30.04F
SOUTHWEST INTL CLOUDY    78  74  87 SE5       30.05F
NAPLES         CLOUDY    80  76  87 CALM      30.04F
MARATHON       CLEAR     80  75  84 CALM      30.06F
KEY WEST NAS   PTCLDY    82  74  76 NE5       30.06F
KEY WEST INTL  PTCLDY    84  77  79 SE5       30.06F

STATION/POSITION SKY/WX   TEMP    WIND        PRES    WAVE   SWELL
                          AIR SEA DIR/SP/G            HT/PER HT/PER
                          (F)     (DEG/KT/KT) (MB)    (FT/S) (FT/S)
NAPLES                        87              1017.9F
26.0N   85.6W              81 85  140/ 14/ 16 1017.5F   2/ 5
DRY TORTUGAS               83     120/  7/  8 1017.9F
SAND KEY                   83      10/  1/  6 1018.6F
LONG KEY                   84 87  100/  3/  4 1018.7F

$$
FLZ067-068-071>074-168-172>174-300600-
SOUTHEAST FLORIDA

CITY           SKY/WX    TMP DP  RH WIND       PRES   REMARKS
W PALM BEACH   CLOUDY    80  73  79 S5        30.06F
FT LAUDER-EXEC CLOUDY    78  74  87 SE5       30.05F
FT LAUDERDALE  MOCLDY    80  76  87 S3        30.04F
POMPANO BEACH  CLEAR     79  75  87 S3        30.05F
PEMBROKE PINES CLOUDY    79  75  87 CALM      30.06F
OPA LOCKA      PTCLDY    80  75  84 SE5       30.06F
MIAMI          CLOUDY    82  75  79 S5        30.06F
WEST KENDALL   PTCLDY    76  73  91 CALM      30.06F
HOMESTEAD      MOCLDY    77  75  92 CALM      30.05F

STATION/POSITION SKY/WX   TEMP    WIND        PRES    WAVE   SWELL
                          AIR SEA DIR/SP/G            HT/PER HT/PER
                          (F)     (DEG/KT/KT) (MB)    (FT/S) (FT/S)
PORT EVERGLADES            81      CALM  /  1 1018.4F
VIRGINIA KEY               83 89  190/  4/  5 1018.9F
LAKE WORTH                        210/  8/ 11   N/A
FOWEY ROCKS                84 84  150/  6/  6 1019.1F
SETTLEMENT POINT           83     170/  5/  7 1018.6F

$$





USA.gov is the U.S. government's official web portal to all federal, state and local government web resources and services.